Regional Weather Roundup
Issued by NWS Cleveland, OH

Home | Current Version | Previous Version | Graphics & Text | Print | Product List | Glossary On
Versions: 1 2 3 4 5 6 7 8 9 10 11 12 13 14 15 16 17 18 19 20 21 22 23 24 25 26 27 28 29 30 31 32 33 34 35 36 37 38 39 40 41 42 43 44 45 46 47 48 49 50
634
ASUS41 KCLE 221400
RWRCLE
OHIO REGIONAL WEATHER ROUNDUP
NATIONAL WEATHER SERVICE WILMINGTON, OH
1000 AM EDT MON MAY 22 2017

NOTE: "FAIR" INDICATES FEW OR NO CLOUDS BELOW 12,000 FEET WITH NO
SIGNIFICANT WEATHER AND/OR OBSTRUCTIONS TO VISIBILITY.

OHZ001>008-015>018-024>027-034-035-043-044-221500-
   NORTHWEST OHIO

CITY           SKY/WX    TMP DP  RH WIND       PRES   REMARKS
DEFIANCE       FAIR      56  42  59 W8        30.06S
FINDLAY        PTSUNNY   57  42  57 W17       30.07R
TOLEDO EXPRESS CLOUDY    54  43  66 SW15      30.04S
TOLEDO EXEC    CLOUDY    56  42  59 W15G22    30.06S
LIMA           FAIR      55  44  66 W18G26    30.09S
$$

OHZ009>014-019>023-028>033-038-089-221500-
   NORTHEAST OHIO

CITY           SKY/WX    TMP DP  RH WIND       PRES   REMARKS
CLE-HOPKINS    PTSUNNY   57  41  55 W15       30.08R
CLE-LAKEFRONT  FAIR      56  42  59 W17       30.05R
CUY CO. ARPT   NOT AVBL
LORAIN-ELYRIA  FAIR      55  39  54 W14       30.07S
ASHTABULA      CLOUDY    54  47  77 W17       30.04R
AKRON-CANTON   PTSUNNY   55  41  59 W13G22    30.06R
WOOSTER        NOT AVBL
MANSFIELD      FAIR      53  40  61 W17G23    30.09R
YOUNGSTOWN     CLOUDY    58  49  72 W9        30.04S
$$

OHZ042-051>053-060>062-070>072-077>081-221500-
  SOUTHWEST OHIO

CITY           SKY/WX    TMP DP  RH WIND       PRES   REMARKS
CINC-COVINGTON FAIR      59  43  55 NW16      30.17R
CINC-LUNKEN    FAIR      61  44  53 W9        30.17R
HAMILTON       FAIR      59  43  55 W14G20    30.18R
DAYTON         NOT AVBL
WRIGHT-PAT AFB FAIR      58  43  58 W13       30.13S
DAYTON GENERAL FAIR      58  42  55 NW14G21   30.15R
WILMINGTON     FAIR      58  44  60 W13G21    30.15R
$$

OHZ036-037-039>041-045>050-054>059-063>069-073>076-082>088-221500-
  CENTRAL AND SOUTHEAST OHIO

CITY           SKY/WX    TMP DP  RH WIND       PRES   REMARKS
COLUMBUS       PTSUNNY   57  43  59 W13       30.12R
OSU AIRPORT    FAIR      57  43  59 NW13G22   30.12R
BOLTON FIELD   SUNNY     55  43  62 NW12G17   30.13R
RICKENBACK AFB NOT AVBL
NEWARK         FAIR      58  41  53 W10       30.11R
MARION         FAIR      55  40  56 NW12      30.11R
LANCASTER      FAIR      60  44  55 NW13G20   30.13R
ZANESVILLE     FAIR      59  41  51 NW14      30.10S
NEW PHILLY     PTSUNNY   58  46  64 W7        30.08R
$$




USA.gov is the U.S. government's official web portal to all federal, state and local government web resources and services.